EW6157 Weather Reports


Display with metric or nautical units.
time (UTC)temp
F
wind
direction
speed
MPH
gust
MPH
rain 1hr
in
rain 24hr
in
rain mn
in
humidity
%
barometer
mb
20260505234507 60 170 7.0 14.0 0.00 0.00 0.00 44 1003.3
20260505233114 61 162 6.0 12.0 0.00 0.00 0.00 44 1003.2
20260505231535 61 135 7.0 12.0 0.00 0.00 0.00 43 1003.2
20260505230133 61 102 4.0 12.0 0.00 0.00 0.00 43 1003.3
20260505224557 62 135 4.0 9.0 0.00 0.00 0.00 43 1003.4
20260505223043 62 113 5.0 8.0 0.00 0.00 0.00 42 1003.5
20260505221511 62 120 2.0 10.0 0.00 0.00 0.00 42 1003.5
20260505220113 63 53 4.0 9.0 0.00 0.00 0.00 41 1003.8
20260505214603 63 131 3.0 6.0 0.00 0.00 0.00 40 1003.6
20260505213005 63 22 2.0 7.0 0.00 0.00 0.00 41 1004.5
20260505211546 62 142 2.0 9.0 0.00 0.00 0.00 42 1004.6
20260505210046 62 199 1.0 8.0 0.00 0.00 0.00 43 1004.7
20260505204546 62 104 2.0 7.0 0.00 0.00 0.00 43 1004.9
20260505203043 62 129 3.0 10.0 0.00 0.00 0.00 42 1004.9
20260505201542 61 127 5.0 8.0 0.00 0.00 0.00 42 1005.1
20260505200055 61 360 0.0 12.0 0.00 0.00 0.00 42 1004.8
20260505194541 62 124 3.0 8.0 0.00 0.00 0.00 42 1004.6
20260505193040 61 74 3.0 13.0 0.00 0.00 0.00 42 1004.7
20260505191545 61 141 1.0 8.0 0.00 0.00 0.00 42 1004.8
20260505190040 62 144 3.0 11.0 0.00 0.00 0.00 42 1004.7
20260505184538 62 127 2.0 7.0 0.00 0.00 0.00 43 1004.9
20260505183050 60 20 3.0 15.0 0.00 0.00 0.00 45 1004.8
20260505181537 61 72 3.0 9.0 0.00 0.00 0.00 44 1004.8
20260505180041 60 23 2.0 12.0 0.00 0.00 0.00 45 1005.1
20260505174541 61 136 3.0 9.0 0.00 0.00 0.00 43 1005.1
20260505173033 60 126 2.0 12.0 0.00 0.00 0.00 47 1004.8
20260505171533 59 27 4.0 9.0 0.00 0.00 0.00 46 1005.0
20260505170032 59 111 3.0 11.0 0.00 0.00 0.00 47 1004.8
20260505164530 59 110 5.0 13.0 0.00 0.00 0.00 46 1004.9
20260505163032 60 28 2.0 10.0 0.00 0.00 0.00 44 1004.9
20260505161527 58 63 6.0 10.0 0.00 0.00 0.00 47 1004.6
20260505153024 56 72 4.0 12.0 0.00 0.00 0.00 49 1004.0
20260505151522 56 88 3.0 10.0 0.00 0.00 0.00 48 1004.0
20260505124608 53 25 3.0 16.0 0.00 0.00 0.00 54 1001.3
20260505123055 53 56 5.0 15.0 0.00 0.00 0.00 54 1001.1
20260505121551 53 44 3.0 9.0 0.00 0.00 0.00 54 1001.0
20260505120053 54 39 2.0 11.0 0.00 0.00 0.00 54 1000.7
20260505114556 54 32 5.0 13.0 0.00 0.00 0.00 55 1000.3
20260505113045 55 91 3.0 16.0 0.00 0.00 0.00 55 1000.3
20260505111539 55 38 6.0 15.0 0.00 0.00 0.00 56 1000.0
20260505101538 60 298 8.0 17.0 0.00 0.00 0.00 48 999.5
20260505100019 63 20 7.0 15.0 0.00 0.00 0.00 36 999.2
20260505094521 66 60 8.0 16.0 0.00 0.00 0.00 28 998.6
20260505093013 65 274 4.0 10.0 0.00 0.00 0.00 27 998.3
20260505091511 64 265 6.0 14.0 0.00 0.00 0.00 29 998.0
20260505090016 64 210 3.0 6.0 0.00 0.00 0.00 30 997.5
20260505084505 65 229 2.0 6.0 0.00 0.00 0.00 29 997.5
20260505083004 66 236 3.0 6.0 0.00 0.00 0.00 28 997.5
20260505081606 66 223 3.0 6.0 0.00 0.00 0.00 27 997.5
20260505080058 67 222 4.0 8.0 0.00 0.00 0.00 27 997.6
20260505074555 67 250 3.0 8.0 0.00 0.00 0.00 27 997.8
20260505073104 67 227 5.0 9.0 0.00 0.00 0.00 27 997.7
20260505071558 68 208 7.0 12.0 0.00 0.00 0.00 26 997.7
20260505070045 69 237 7.0 10.0 0.00 0.00 0.00 25 997.9
20260505064543 70 227 6.0 13.0 0.00 0.00 0.00 24 997.9
20260505063039 71 228 7.0 15.0 0.00 0.00 0.00 24 997.9
20260505061535 71 243 7.0 13.0 0.00 0.00 0.00 23 998.0
20260505060043 72 205 7.0 15.0 0.00 0.00 0.00 23 998.1
20260505054530 72 217 8.0 16.0 0.00 0.00 0.00 22 998.0
20260505053030 72 222 7.0 13.0 0.00 0.00 0.00 22 998.1
20260505051528 72 190 9.0 16.0 0.00 0.00 0.00 22 998.2
20260505041524 72 191 4.0 11.0 0.00 0.00 0.00 24 998.3
20260505040020 73 181 7.0 15.0 0.00 0.00 0.00 23 998.5
20260505034519 73 210 7.0 14.0 0.00 0.00 0.00 23 998.4
20260505033018 74 234 9.0 16.0 0.00 0.00 0.00 22 998.3
20260505031517 74 208 6.0 13.0 0.00 0.00 0.00 21 998.3
20260505030017 74 212 6.0 12.0 0.00 0.00 0.00 19 998.2
20260505024515 75 231 6.0 13.0 0.00 0.00 0.00 17 998.1
20260505023021 75 213 3.0 10.0 0.00 0.00 0.00 16 997.8
20260505021516 77 173 6.0 13.0 0.00 0.00 0.00 15 997.8
20260505020014 77 252 5.0 18.0 0.00 0.00 0.00 14 997.8
20260505014515 78 202 8.0 16.0 0.00 0.00 0.00 14 997.6
20260505013011 79 191 9.0 16.0 0.00 0.00 0.00 14 997.7
20260505011512 79 225 8.0 14.0 0.00 0.00 0.00 14 997.5
20260505010009 80 222 6.0 15.0 0.00 0.00 0.00 13 997.4
20260505004514 81 203 8.0 17.0 0.00 0.00 0.00 13 997.7
20260505003006 82 275 10.0 19.0 0.00 0.00 0.00 13 997.7
20260505001506 82 232 11.0 16.0 0.00 0.00 0.00 12 997.9
20260505000009 83 272 9.0 16.0 0.00 0.00 0.00 11 997.7